DW3256 Weather Reports


time (UTC)temp
F
wind
direction
speed
knots
gust
knots
rain 1hr
in
rain 24hr
in
rain mn
in
humidity
%
barometer
mb
20260510164428 76 313 2.6 9.6 0.00 0.00 0.00 48 1015.0
20260510163924 76 273 3.5 13.9 0.00 0.00 0.00 49 1015.1
20260510163417 76 233 3.5 9.6 0.00 0.00 0.00 47 1015.1
20260510162915 76 238 4.3 9.6 0.00 0.00 0.00 46 1015.1
20260510162730 76 318 3.5 8.7 0.00 0.00 0.00 48 1015.1
20260510161913 76 287 2.6 7.0 0.00 0.00 0.00 50 1015.1
20260510161413 76 221 2.6 7.0 0.00 0.00 0.00 50 1015.1
20260510160910 76 202 3.5 8.7 0.00 0.00 0.00 49 1015.3
20260510160408 76 10 2.6 8.7 0.00 0.00 0.00 49 1015.3
20260510160247 75 332 2.6 5.2 0.00 0.00 0.00 52 1015.3
20260510155407 75 279 3.5 7.8 0.00 0.00 0.00 51 1015.4
20260510154908 75 67 3.5 7.8 0.00 0.00 0.00 49 1015.3
20260510154740 75 359 2.6 7.8 0.00 0.00 0.00 50 1015.2
20260510153903 75 162 2.6 6.1 0.00 0.00 0.00 54 1015.3
20260510153406 74 24 4.3 11.3 0.00 0.00 0.00 53 1015.3
20260510152906 74 272 3.5 11.3 0.00 0.00 0.00 52 1015.3
20260510152405 74 269 2.6 9.6 0.00 0.00 0.00 54 1015.2
20260510151902 74 174 1.7 9.6 0.00 0.00 0.00 53 1015.2
20260510151750 73 230 1.7 5.2 0.00 0.00 0.00 54 1015.4
20260510150901 73 233 1.7 6.1 0.00 0.00 0.00 54 1015.5
20260510150405 73 83 1.7 6.1 0.00 0.00 0.00 56 1015.4
20260510145901 72 309 1.7 3.5 0.00 0.00 0.00 59 1015.4
20260510145401 72 218 1.7 4.3 0.00 0.00 0.00 58 1015.4
20260510144901 71 157 1.7 4.3 0.00 0.00 0.00 59 1015.3
20260510144358 71 97 0.9 3.5 0.00 0.00 0.00 61 1015.4
20260510143856 70 328 0.9 1.7 0.00 0.00 0.00 66 1015.3
20260510143358 69 285 0.9 1.7 0.00 0.00 0.00 68 1015.3
20260510142900 69 285 0.0 1.7 0.00 0.00 0.00 67 1015.4
20260510142356 68 247 0.0 2.6 0.00 0.00 0.00 68 1015.4
20260510142244 68 247 0.0 2.6 0.00 0.00 0.00 64 1015.4
20260510141355 67 11 0.0 0.9 0.00 0.00 0.00 65 1015.4
20260510140851 67 24 0.9 1.7 0.00 0.00 0.00 67 1015.4
20260510140350 66 24 0.9 1.7 0.00 0.00 0.00 66 1015.5
20260510135848 66 274 0.9 2.6 0.00 0.00 0.00 69 1015.5
20260510135353 65 271 0.9 2.6 0.00 0.00 0.00 70 1015.6
20260510134849 65 271 0.9 2.6 0.00 0.00 0.00 71 1015.6
20260510134353 64 266 0.9 2.6 0.00 0.00 0.00 71 1015.7
20260510133848 63 283 0.9 2.6 0.00 0.00 0.00 73 1015.6
20260510133346 63 283 0.0 0.9 0.00 0.00 0.00 75 1015.7
20260510132844 62 283 0.0 1.7 0.00 0.00 0.00 74 1015.6
20260510132345 62 283 0.9 1.7 0.00 0.00 0.00 75 1015.7
20260510131843 61 283 0.9 1.7 0.00 0.00 0.00 76 1015.6
20260510131342 61 283 0.0 1.7 0.00 0.00 0.00 77 1015.6
20260510130845 60 283 0.0 0.9 0.00 0.00 0.00 77 1015.6
20260510130342 60 283 0.0 1.7 0.00 0.00 0.00 77 1015.6
20260510125843 59 283 0.9 2.6 0.00 0.00 0.00 78 1015.6
20260510125347 59 297 0.0 2.6 0.00 0.00 0.00 78 1015.6
20260510125151 58 301 0.0 1.7 0.00 0.00 0.00 79 1015.6
20260510124339 58 301 0.0 1.7 0.00 0.00 0.00 80 1015.6
20260510123838 57 284 0.0 1.7 0.00 0.00 0.00 80 1015.4
20260510123339 57 284 0.0 1.7 0.00 0.00 0.00 81 1015.4
20260510123158 56 284 0.0 0.9 0.00 0.00 0.00 81 1015.3
20260510122337 56 284 0.0 0.9 0.00 0.00 0.00 83 1015.3
20260510122052 55 284 0.0 0.9 0.00 0.00 0.00 84 1015.2
20260510122001 56 284 0.0 0.9 0.00 0.00 0.00 83 1015.3
20260510120831 55 284 0.0 0.0 0.00 0.00 0.00 85 1015.1
20260510120330 54 284 0.0 0.9 0.00 0.00 0.00 85 1015.2
20260510115830 54 284 0.0 0.9 0.00 0.00 0.00 86 1015.0
20260510115508 53 284 0.0 0.9 0.00 0.00 0.00 87 1015.2
20260510115430 53 284 0.0 0.9 0.00 0.00 0.00 86 1015.1
20260510114331 53 284 0.0 0.9 0.00 0.00 0.00 88 1015.2
20260510113831 52 284 0.0 0.9 0.00 0.00 0.00 88 1015.1
20260510113328 52 284 0.0 0.9 0.00 0.00 0.00 89 1014.9
20260510112825 51 284 0.0 0.9 0.00 0.00 0.00 89 1014.9
20260510112322 51 284 0.0 0.9 0.00 0.00 0.00 89 1014.8
20260510111824 51 284 0.0 0.9 0.00 0.00 0.00 88 1014.6
20260510111326 51 284 0.0 0.9 0.00 0.00 0.00 89 1014.6
20260510110825 51 284 0.0 0.9 0.00 0.00 0.00 88 1014.6
20260510110324 51 284 0.0 0.9 0.00 0.00 0.00 88 1014.4
20260510105820 51 284 0.0 1.7 0.00 0.00 0.00 89 1014.3
20260510105318 51 285 0.0 1.7 0.00 0.00 0.00 89 1014.2
20260510104819 51 263 0.0 0.9 0.00 0.00 0.00 89 1014.1
20260510104640 51 263 0.0 2.6 0.00 0.00 0.00 89 1014.1
20260510103819 51 259 0.9 2.6 0.00 0.00 0.00 89 1014.0
20260510103322 51 110 0.9 1.7 0.00 0.00 0.00 89 1013.9
20260510102819 51 250 0.0 1.7 0.00 0.00 0.00 89 1013.9
20260510102318 51 251 0.0 1.7 0.00 0.00 0.00 89 1013.8
20260510102142 51 251 0.9 2.6 0.00 0.00 0.00 89 1013.8
20260510101315 51 251 0.9 4.3 0.00 0.00 0.00 88 1013.8
20260510100816 51 270 0.0 4.3 0.00 0.00 0.00 88 1013.7
20260510100319 51 273 0.0 0.9 0.00 0.00 0.00 89 1013.6
20260510095815 51 273 0.0 1.7 0.00 0.00 0.00 89 1013.5
20260510095316 51 273 0.0 2.6 0.00 0.00 0.00 88 1013.5
20260510094813 51 273 0.0 2.6 0.00 0.00 0.00 89 1013.5
20260510094316 51 273 0.0 1.7 0.00 0.00 0.00 89 1013.6
20260510093810 51 273 0.0 0.0 0.00 0.00 0.00 88 1013.7
20260510093310 51 273 0.0 1.7 0.00 0.00 0.00 88 1013.7
20260510092811 51 273 0.0 1.7 0.00 0.00 0.00 88 1013.6
20260510092309 51 273 0.9 2.6 0.00 0.00 0.00 88 1013.6
20260510092119 51 273 0.9 2.6 0.00 0.00 0.00 88 1013.6
20260510091306 51 273 0.0 1.7 0.00 0.00 0.00 87 1013.5
20260510090800 51 272 0.0 1.7 0.00 0.00 0.00 87 1013.5
20260510090255 51 272 0.0 1.7 0.00 0.00 0.00 86 1013.3
20260510085754 52 272 0.0 1.7 0.00 0.00 0.00 86 1013.3
20260510085241 52 272 0.0 1.7 0.00 0.00 0.00 86 1013.2
20260510084735 52 272 0.0 1.7 0.00 0.00 0.00 87 1013.2
20260510084236 52 270 0.0 2.6 0.00 0.00 0.00 86 1013.2
20260510083732 52 270 0.9 2.6 0.00 0.00 0.00 86 1013.1
20260510083230 52 266 0.9 2.6 0.00 0.00 0.00 86 1013.0
20260510082729 52 266 0.9 2.6 0.00 0.00 0.00 86 1013.0
20260510082233 51 10 0.9 2.6 0.00 0.00 0.00 86 1013.0
20260510081729 51 297 0.0 2.6 0.00 0.00 0.00 86 1013.0
20260510081231 52 342 0.0 1.7 0.00 0.00 0.00 86 1012.9
20260510081059 52 343 0.9 2.6 0.00 0.00 0.00 86 1012.9
20260510080231 52 344 0.9 2.6 0.00 0.00 0.00 86 1012.9
20260510075730 52 269 0.9 3.5 0.00 0.00 0.00 85 1012.8
20260510075233 52 269 0.9 3.5 0.00 0.00 0.00 85 1012.8
20260510074729 52 300 0.0 2.6 0.00 0.00 0.00 85 1012.7
20260510074229 52 349 0.0 2.6 0.00 0.00 0.00 85 1012.7
20260510073732 52 342 0.9 2.6 0.00 0.00 0.00 85 1012.8
20260510073232 52 293 0.0 1.7 0.00 0.00 0.00 85 1012.8
20260510072730 52 293 0.0 0.0 0.00 0.00 0.00 85 1012.7
20260510072617 52 293 0.0 1.7 0.00 0.00 0.00 85 1012.6
20260510071729 52 293 0.0 1.7 0.00 0.00 0.00 84 1012.6
20260510071230 52 293 0.9 2.6 0.00 0.00 0.00 84 1012.5
20260510070731 52 293 0.9 2.6 0.00 0.00 0.00 83 1012.5
20260510070451 53 304 0.9 2.6 0.00 0.00 0.00 83 1012.4
20260510065731 53 330 0.0 2.6 0.00 0.00 0.00 83 1012.3
20260510065233 53 330 0.0 2.6 0.00 0.00 0.00 83 1012.4
20260510064733 53 335 0.0 1.7 0.00 0.00 0.00 83 1012.4
20260510064229 53 335 0.9 3.5 0.00 0.00 0.00 82 1012.5
20260510063729 53 261 0.9 3.5 0.00 0.00 0.00 82 1012.6
20260510063230 54 261 0.0 3.5 0.00 0.00 0.00 82 1012.6
20260510063047 53 304 0.0 1.7 0.00 0.00 0.00 82 1012.6
20260510062229 53 298 0.0 1.7 0.00 0.00 0.00 82 1012.5
20260510061730 53 278 0.0 1.7 0.00 0.00 0.00 82 1012.5
20260510061230 53 277 0.0 2.6 0.00 0.00 0.00 82 1012.4
20260510060729 53 277 0.9 2.6 0.00 0.00 0.00 82 1012.4
20260510060232 53 273 0.9 2.6 0.00 0.00 0.00 81 1012.5
20260510055730 53 272 0.9 3.5 0.00 0.00 0.00 81 1012.6
20260510055233 54 259 0.9 3.5 0.00 0.00 0.00 81 1012.6
20260510054730 54 71 0.9 2.6 0.00 0.00 0.00 80 1012.5
20260510054241 54 71 0.9 2.6 0.00 0.00 0.00 81 1012.5
20260510054218 54 345 0.9 1.7 0.00 0.00 0.00 80 1012.5
20260510053820 54 345 0.0 1.7 0.00 0.00 0.00 80 1012.5
20260510052736 54 19 0.9 1.7 0.00 0.00 0.00 80 1012.6
20260510052228 55 286 0.9 1.7 0.00 0.00 0.00 79 1012.5
20260510051727 55 287 0.9 3.5 0.00 0.00 0.00 78 1012.5
20260510051229 56 286 0.9 3.5 0.00 0.00 0.00 78 1012.6
20260510050730 56 19 0.0 1.7 0.00 0.00 0.00 77 1012.5
20260510050531 56 37 0.0 1.7 0.00 0.00 0.00 77 1012.5
20260510045724 57 37 0.0 2.6 0.00 0.00 0.00 76 1012.6
20260510045236 57 36 0.0 2.6 0.00 0.00 0.00 76 1012.5
20260510044720 57 37 0.0 1.7 0.00 0.00 0.00 76 1012.4
20260510044221 57 37 0.9 1.7 0.00 0.00 0.00 75 1012.5
20260510044034 57 37 0.9 1.7 0.00 0.00 0.00 75 1012.6
20260510043221 57 37 0.9 1.7 0.00 0.00 0.00 75 1012.6
20260510043101 58 37 0.9 1.7 0.00 0.00 0.00 74 1012.7
20260510042215 58 37 0.9 1.7 0.00 0.00 0.00 74 1012.6
20260510041711 58 37 0.9 1.7 0.00 0.00 0.00 74 1012.5
20260510041211 58 43 0.9 1.7 0.00 0.00 0.00 74 1012.4
20260510040716 58 44 0.9 1.7 0.00 0.00 0.00 73 1012.5
20260510040507 58 71 0.9 1.7 0.00 0.00 0.00 74 1012.5
20260510035709 58 14 0.9 1.7 0.00 0.00 0.00 74 1012.5
20260510035207 58 314 0.9 2.6 0.00 0.00 0.00 74 1012.5
20260510034708 58 314 0.9 2.6 0.00 0.00 0.00 74 1012.6
20260510034207 58 320 0.9 2.6 0.00 0.00 0.00 72 1012.5
20260510033701 58 320 0.9 2.6 0.00 0.00 0.00 73 1012.6
20260510033201 59 3 0.9 2.6 0.00 0.00 0.00 72 1012.5
20260510032703 59 251 0.9 3.5 0.00 0.00 0.00 72 1012.4
20260510032202 59 29 0.9 3.5 0.00 0.00 0.00 72 1012.4
20260510031701 59 326 0.9 2.6 0.00 0.00 0.00 72 1012.3
20260510031201 58 306 0.9 2.6 0.00 0.00 0.00 73 1012.4
20260510030718 58 300 0.9 1.7 0.00 0.00 0.00 74 1012.5
20260510030708 58 304 0.9 2.6 0.00 0.00 0.00 74 1012.4
20260510030307 58 301 0.9 1.7 0.00 0.00 0.00 74 1012.5
20260510025206 58 301 0.9 1.7 0.00 0.00 0.00 72 1012.4
20260510024701 58 300 0.0 1.7 0.00 0.00 0.00 73 1012.4
20260510024508 58 300 0.9 1.7 0.00 0.00 0.00 72 1012.3
20260510023701 58 300 0.9 1.7 0.00 0.00 0.00 72 1012.3
20260510023512 59 299 0.9 2.6 0.00 0.00 0.00 71 1012.3
20260510022704 59 299 0.9 2.6 0.00 0.00 0.00 70 1012.2
20260510022205 59 299 0.9 1.7 0.00 0.00 0.00 70 1012.1
20260510021701 59 299 0.9 1.7 0.00 0.00 0.00 70 1012.1
20260510021201 60 299 0.0 1.7 0.00 0.00 0.00 70 1012.0
20260510020702 60 299 0.0 1.7 0.00 0.00 0.00 69 1012.0
20260510020201 60 299 0.0 1.7 0.00 0.00 0.00 69 1011.9
20260510015701 60 299 0.9 1.7 0.00 0.00 0.00 68 1011.8
20260510015201 60 299 0.9 1.7 0.00 0.00 0.00 68 1011.6
20260510014707 60 299 0.0 1.7 0.00 0.00 0.00 68 1011.5
20260510014530 60 295 0.9 1.7 0.00 0.00 0.00 68 1011.4
20260510013704 61 295 0.9 2.6 0.00 0.00 0.00 66 1011.3
20260510013202 61 295 0.9 2.6 0.00 0.00 0.00 66 1011.2
20260510012700 61 64 0.9 1.7 0.00 0.00 0.00 65 1010.9
20260510012452 62 276 0.0 0.9 0.00 0.00 0.00 66 1011.1
20260510011700 62 274 0.0 4.3 0.00 0.00 0.00 66 1010.8
20260510011202 62 274 0.9 4.3 0.00 0.00 0.00 65 1010.8
20260510010705 62 351 0.9 1.7 0.00 0.00 0.00 65 1010.7
20260510010201 63 351 0.9 1.7 0.00 0.00 0.00 65 1010.7
20260510005702 63 320 0.9 1.7 0.00 0.00 0.00 62 1010.6
20260510005201 63 317 0.9 2.6 0.00 0.00 0.00 63 1010.7
20260510005024 64 316 0.9 2.6 0.00 0.00 0.00 62 1010.7
20260510004202 64 298 0.9 2.6 0.00 0.00 0.00 60 1010.7
20260510003703 65 67 0.9 2.6 0.00 0.00 0.00 61 1010.7
20260510003203 65 11 0.9 1.7 0.00 0.00 0.00 60 1010.7
20260510003033 66 58 0.9 1.7 0.00 0.00 0.00 59 1010.6
20260510002201 66 60 0.9 1.7 0.00 0.00 0.00 59 1010.5
20260510001912 67 103 0.9 3.5 0.00 0.00 0.00 56 1010.3
20260510001829 67 103 0.9 3.5 0.00 0.00 0.00 58 1010.4
20260510000702 67 104 0.9 3.5 0.00 0.00 0.00 55 1010.2
20260510000203 68 357 0.9 2.6 0.00 0.00 0.00 55 1010.1
20260509235703 68 85 0.9 1.7 0.00 0.00 0.00 54 1010.0
20260509235205 69 78 0.9 2.6 0.00 0.00 0.00 53 1009.9
20260509235022 69 70 0.9 2.6 0.00 0.00 0.00 52 1009.8
20260509234205 70 357 1.7 4.3 0.00 0.00 0.00 52 1009.8
20260509233701 71 354 1.7 4.3 0.00 0.00 0.00 51 1009.6
20260509233201 71 258 2.6 9.6 0.00 0.00 0.00 47 1009.7
20260509232700 71 255 1.7 9.6 0.00 0.00 0.00 47 1009.7
20260509232459 71 180 1.7 5.2 0.00 0.00 0.00 47 1009.6
20260509232019 71 296 1.7 3.5 0.00 0.00 0.00 49 1009.7
20260509231202 71 125 1.7 6.1 0.00 0.00 0.00 48 1009.5
20260509230702 71 268 1.7 6.1 0.00 0.00 0.00 48 1009.5
20260509230201 72 127 1.7 5.2 0.00 0.00 0.00 48 1009.4
20260509225705 72 301 1.7 3.5 0.00 0.00 0.00 47 1009.4
20260509225202 72 301 1.7 6.1 0.00 0.00 0.00 48 1009.4
20260509224703 72 161 1.7 6.1 0.00 0.00 0.00 48 1009.4
20260509224204 73 260 1.7 4.3 0.00 0.00 0.00 47 1009.5
20260509223705 73 231 2.6 7.0 0.00 0.00 0.00 46 1009.4
20260509223200 73 283 3.5 7.0 0.00 0.00 0.00 45 1009.4
20260509222701 73 264 3.5 8.7 0.00 0.00 0.00 46 1009.3
20260509222538 73 123 2.6 8.7 0.00 0.00 0.00 45 1009.3
20260509221701 73 280 1.7 7.0 0.00 0.00 0.00 47 1009.3
20260509221202 73 88 3.5 7.0 0.00 0.00 0.00 46 1009.3
20260509220704 73 278 3.5 8.7 0.00 0.00 0.00 46 1009.3
20260509220201 73 120 1.7 8.7 0.00 0.00 0.00 46 1009.3
20260509215700 73 353 1.7 5.2 0.00 0.00 0.00 47 1009.2
20260509215203 73 297 1.7 5.2 0.00 0.00 0.00 47 1009.2
20260509214704 73 202 1.7 5.2 0.00 0.00 0.00 47 1009.2
20260509214202 74 333 1.7 3.5 0.00 0.00 0.00 51 1009.1
20260509213701 74 301 0.9 3.5 0.00 0.00 0.00 46 1008.9
20260509213158 74 80 0.9 3.5 0.00 0.00 0.00 45 1008.9
20260509212651 74 251 0.9 2.6 0.00 0.00 0.00 44 1009.0
20260509212145 74 183 0.9 3.5 0.00 0.00 0.00 43 1008.9
20260509211644 73 287 0.9 3.5 0.00 0.00 0.00 44 1008.8
20260509211143 73 278 0.9 6.1 0.00 0.00 0.00 47 1008.7
20260509210643 73 279 1.7 6.1 0.00 0.00 0.00 45 1008.7
20260509210144 73 274 0.9 3.5 0.00 0.00 0.00 45 1008.5
20260509205950 73 247 0.0 0.9 0.00 0.00 0.00 50 1008.5
20260509205143 73 247 0.9 2.6 0.00 0.00 0.00 48 1008.7
20260509204639 73 247 0.9 2.6 0.00 0.00 0.00 46 1008.5
20260509204138 73 166 0.9 3.5 0.00 0.00 0.00 48 1008.5
20260509203636 73 278 1.7 3.5 0.00 0.00 0.00 49 1008.5
20260509203136 73 277 2.6 3.5 0.00 0.00 0.00 47 1008.5
20260509202635 73 270 1.7 5.2 0.00 0.00 0.00 46 1008.4
20260509202134 73 283 0.9 5.2 0.00 0.00 0.00 46 1008.4
20260509201632 73 302 0.0 2.6 0.00 0.00 0.00 49 1008.5
20260509201136 74 347 0.0 0.9 0.00 0.00 0.00 47 1008.4
20260509200631 74 347 0.9 5.2 0.00 0.00 0.00 45 1008.4
20260509200435 74 347 1.7 5.2 0.00 0.00 0.00 45 1008.4
20260509195628 74 293 1.7 2.6 0.00 0.00 0.00 47 1008.5
20260509195456 74 299 1.7 3.5 0.00 0.00 0.00 45 1008.4
20260509194633 74 24 1.7 3.5 0.00 0.00 0.00 47 1008.5
20260509194128 74 312 0.9 2.6 0.00 0.00 0.00 46 1008.5
20260509193619 74 37 0.9 3.5 0.00 0.00 0.00 45 1008.5
20260509193113 74 239 1.7 5.2 0.00 0.00 0.00 44 1008.5
20260509192614 74 147 2.6 6.1 0.00 0.00 0.00 44 1008.3
20260509192559 74 291 1.7 7.0 0.00 0.00 0.00 46 1008.5
20260509192555 74 276 2.6 7.0 0.00 0.00 0.00 45 1008.4
20260509191113 73 285 1.7 3.5 0.00 0.00 0.00 48 1008.7
20260509190612 72 270 1.7 3.5 0.00 0.00 0.00 48 1008.7
20260509190113 72 324 0.9 3.5 0.00 0.00 0.00 49 1008.9
20260509185613 72 328 1.7 3.5 0.00 0.00 0.00 50 1008.8
20260509185111 72 277 4.3 9.6 0.00 0.00 0.00 46 1008.9
20260509184611 73 293 2.6 9.6 0.00 0.00 0.00 46 1008.9
20260509184110 74 285 1.7 7.0 0.00 0.00 0.00 48 1008.7
20260509183611 73 315 2.6 7.8 0.00 0.00 0.00 50 1008.9
20260509183107 73 56 2.6 7.8 0.00 0.00 0.00 48 1008.8
20260509182953 73 319 3.5 7.0 0.00 0.00 0.00 47 1008.9
20260509182106 74 293 3.5 7.0 0.00 0.00 0.00 46 1009.0
20260509181907 73 276 3.5 7.8 0.00 0.00 0.00 48 1009.2
20260509181106 73 303 4.3 7.8 0.00 0.00 0.00 47 1009.2
20260509180602 73 271 4.3 9.6 0.00 0.00 0.00 46 1009.2
20260509180105 74 285 3.5 9.6 0.00 0.00 0.00 45 1009.3
20260509175559 74 280 4.3 7.8 0.00 0.00 0.00 46 1009.3
20260509175306 73 306 2.6 6.1 0.00 0.00 0.00 45 1009.2
20260509175210 74 299 3.5 7.8 0.00 0.00 0.00 45 1009.3
20260509174043 73 278 3.5 9.6 0.00 0.00 0.00 47 1009.4
20260509173543 73 299 4.3 9.6 0.00 0.00 0.00 44 1009.4
20260509173042 73 294 2.6 7.0 0.00 0.00 0.00 45 1009.3
20260509172541 73 286 1.7 6.1 0.00 0.00 0.00 44 1009.3
20260509172044 73 56 2.6 6.1 0.00 0.00 0.00 46 1009.4
20260509171614 73 292 3.5 7.8 0.00 0.00 0.00 45 1009.8
20260509171605 72 311 3.5 7.8 0.00 0.00 0.00 43 1009.7
20260509171553 73 283 3.5 7.8 0.00 0.00 0.00 45 1009.5
20260509170040 72 297 3.5 7.8 0.00 0.00 0.00 49 1009.9
20260509165917 72 299 4.3 8.7 0.00 0.00 0.00 50 1009.9
20260509165040 72 266 4.3 8.7 0.00 0.00 0.00 50 1010.0